Weather in Katanda

Russia / Altai Republic     50°09′53″N   86°10′39″E
temp.,
°C
wind,
m/s
gust,
m/s
humid.,
%
clouds,
%
prec.,
mm/h
press.,
hPa
HPBL,
m
22 may, sun
sun2201:00+10e1156100 0.0 100911
04:00+10ene115283 0.0 100911
07:00+12e2245100 0.0 100717
10:00+18se122799 0.0 1006451
13:00+21sw5924100 0.0 10043302
16:00+16w3443100 0.0 1007694
19:00+16wsw235174 0.0 1008385
22:00+11w1166100 0.0 101113
23 may, mon
mon2301:00+10wsw0172100 0.0 101212
04:00+9w007343 0.0 101311
07:00+12ne11665 0.0 101543
10:00+15n125292 0.1 10151057
13:00+17n1249100 0.1 10141786
16:00+15nne226083 0.5 1015822
19:00+13nne2266100 1.2 1017536
22:00+9ne337998 0.0 101998
24 may, tue
tue2401:00+7ne33835 0.0 101935
04:00+6ene32865 0.0 101827
07:00+8ene22800 0.0 1017129
10:00+14ese22620 0.0 1014579
13:00+19se11472 0.0 10111009
16:00+22wsw12396 0.0 10091557
19:00+21w114378 0.0 10091033
22:00+15ne22623 0.1 101213
25 may, wed
wed2501:00+13ne3274100 0.2 101321
04:00+12ene2278100 0.0 101313
07:00+14ene017035 0.0 101349
10:00+19se115289 0.0 1011573
13:00+23wsw2235100 0.0 10091505
16:00+16se1362100 0.4 1011268
19:00+14se1380100 4.1 1013153
22:00+12ne338658 3.3 1015114
26 may, thu
thu2601:00+10ene229320 3.4 101542
04:00+9nne118965 0.0 101410
07:00+11se118399 0.1 1015106
10:00+14s1070100 0.2 1014511
13:00+18nw115265 1.1 10121428
16:00+19nne325155 0.9 10111573
19:00+17ne336141 2.1 1011616
22:00+13nne227674 0.5 101316